GW6367 Weather Reports


time (UTC)temp
C
wind
direction
speed
KPH
gust
KPH
rain 1hr
cm
rain 24hr
cm
rain mn
cm
humidity
%
barometer
mb
20260508105853 23 225 1.6 3.2 0.00 0.00 0.00 78 1008.0
20260508105353 23 229 0.0 4.8 0.00 0.00 0.00 79 1008.0
20260508104855 23 220 4.8 6.4 0.00 0.00 0.00 79 1008.0
20260508104354 23 245 6.4 8.0 0.00 0.00 0.00 79 1008.0
20260508103853 23 237 4.8 8.0 0.00 0.00 0.00 78 1008.0
20260508103356 23 227 8.0 8.0 0.00 0.00 0.00 77 1008.0
20260508102853 23 227 4.8 8.0 0.00 0.00 0.00 76 1008.0
20260508102355 23 243 8.0 9.7 0.00 0.00 0.00 75 1008.0
20260508101856 23 226 3.2 8.0 0.00 0.00 0.00 75 1008.0
20260508101354 23 230 9.7 9.7 0.00 0.00 0.00 75 1008.0
20260508100853 23 266 6.4 8.0 0.00 0.00 0.00 75 1007.0
20260508100355 23 235 8.0 9.7 0.00 0.00 0.00 75 1008.0
20260508095853 23 232 4.8 11.3 0.00 0.00 0.00 74 1008.0
20260508095353 24 218 9.7 12.9 0.00 0.00 0.00 74 1008.0
20260508094854 24 243 3.2 6.4 0.00 0.00 0.00 74 1008.0
20260508094354 24 226 8.0 8.0 0.00 0.00 0.00 74 1008.0
20260508093853 24 218 8.0 9.7 0.00 0.00 0.00 74 1007.0
20260508093353 24 258 9.7 11.3 0.00 0.00 0.00 73 1007.0
20260508092853 24 246 6.4 12.9 0.00 0.00 0.00 73 1007.0
20260508092354 24 264 6.4 11.3 0.00 0.00 0.00 73 1007.0
20260508091853 24 235 9.7 11.3 0.00 0.00 0.00 73 1007.0
20260508091353 24 240 9.7 12.9 0.00 0.00 0.00 73 1007.0
20260508090854 25 246 12.9 16.1 0.00 0.00 0.00 70 1008.0
20260508090354 25 304 6.4 12.9 0.00 0.00 0.00 69 1008.0
20260508085854 25 215 9.7 12.9 0.00 0.00 0.00 68 1007.0
20260508085354 25 271 3.2 9.7 0.00 0.00 0.00 70 1007.0
20260508084853 24 267 4.8 14.5 0.00 0.00 0.00 72 1007.0
20260508084353 25 250 9.7 14.5 0.00 0.00 0.00 71 1008.0
20260508083856 25 243 20.9 22.5 0.00 0.00 0.00 71 1007.0
20260508083353 24 258 11.3 14.5 0.00 0.00 0.00 72 1007.0
20260508082853 25 229 17.7 20.9 0.00 0.00 0.00 70 1007.0
20260508082354 26 235 8.0 11.3 0.00 0.00 0.00 68 1007.0
20260508081853 25 240 4.8 12.9 0.00 0.00 0.00 70 1007.0
20260508081353 25 279 8.0 16.1 0.00 0.00 0.00 69 1007.0
20260508080853 25 240 8.0 11.3 0.00 0.00 0.00 68 1007.0
20260508080353 25 280 4.8 14.5 0.00 0.00 0.00 67 1007.0
20260508075853 26 228 9.7 17.7 0.00 0.00 0.00 64 1007.0
20260508075353 26 257 3.2 8.0 0.00 0.00 0.00 64 1007.0
20260508074854 27 236 8.0 14.5 0.00 0.00 0.00 61 1007.0
20260508074353 27 225 11.3 12.9 0.00 0.00 0.00 59 1007.0
20260508073854 27 268 9.7 9.7 0.00 0.00 0.00 60 1007.0
20260508073353 27 267 9.7 17.7 0.00 0.00 0.00 61 1007.0
20260508072854 26 246 8.0 16.1 0.00 0.00 0.00 61 1007.0
20260508072354 26 262 8.0 12.9 0.00 0.00 0.00 60 1007.0
20260508071853 27 264 11.3 14.5 0.00 0.00 0.00 59 1007.0
20260508071359 27 266 8.0 12.9 0.00 0.00 0.00 59 1007.0
20260508070855 27 278 8.0 12.9 0.00 0.00 0.00 59 1007.0
20260508070353 27 229 9.7 17.7 0.00 0.00 0.00 58 1008.0
20260508065853 27 264 8.0 14.5 0.00 0.00 0.00 59 1008.0
20260508065353 27 292 4.8 17.7 0.00 0.00 0.00 59 1008.0
20260508064853 27 257 8.0 16.1 0.00 0.00 0.00 60 1008.0
20260508064353 26 219 6.4 17.7 0.00 0.00 0.00 62 1008.0
20260508063853 26 238 8.0 14.5 0.00 0.00 0.00 63 1008.0
20260508063353 26 234 6.4 9.7 0.00 0.00 0.00 62 1008.0
20260508062853 26 275 1.6 16.1 0.00 0.00 0.00 62 1008.0
20260508062353 26 229 9.7 14.5 0.00 0.00 0.00 60 1008.0
20260508061853 26 238 6.4 16.1 0.00 0.00 0.00 59 1008.0
20260508061353 27 268 4.8 14.5 0.00 0.00 0.00 57 1008.0
20260508060853 26 284 6.4 17.7 0.00 0.00 0.00 60 1008.0
20260508060354 25 268 11.3 11.3 0.00 0.00 0.00 67 1009.0
20260508055854 25 216 8.0 12.9 0.00 0.00 0.00 67 1009.0
20260508055353 25 277 4.8 19.3 0.00 0.00 0.00 66 1009.0
20260508054853 26 277 6.4 16.1 0.00 0.00 0.00 60 1009.0
20260508054354 26 265 8.0 14.5 0.00 0.00 0.00 61 1009.0
20260508053854 26 273 8.0 12.9 0.00 0.00 0.00 61 1009.0
20260508053353 25 232 8.0 9.7 0.00 0.00 0.00 62 1009.0
20260508052853 25 243 6.4 11.3 0.00 0.00 0.00 62 1009.0
20260508052353 26 304 9.7 12.9 0.00 0.00 0.00 60 1009.0
20260508051853 27 227 9.7 16.1 0.00 0.00 0.00 58 1009.0
20260508051354 27 230 12.9 14.5 0.00 0.00 0.00 57 1009.0
20260508050854 26 265 11.3 17.7 0.00 0.00 0.00 58 1009.0
20260508050356 26 279 8.0 14.5 0.00 0.00 0.00 57 1010.0
20260508045853 27 258 9.7 11.3 0.00 0.00 0.00 55 1010.0
20260508045353 28 287 8.0 16.1 0.00 0.00 0.00 52 1010.0
20260508044853 27 256 12.9 14.5 0.00 0.00 0.00 55 1010.0
20260508044353 26 284 11.3 19.3 0.00 0.00 0.00 58 1010.0
20260508043853 27 239 11.3 12.9 0.00 0.00 0.00 57 1010.0
20260508043353 26 293 8.0 11.3 0.00 0.00 0.00 57 1010.0
20260508042854 27 275 6.4 16.1 0.00 0.00 0.00 58 1010.0
20260508042353 27 251 6.4 14.5 0.00 0.00 0.00 58 1010.0
20260508041853 27 248 11.3 11.3 0.00 0.00 0.00 58 1010.0
20260508041354 26 277 8.0 11.3 0.00 0.00 0.00 59 1010.0
20260508040857 25 240 8.0 11.3 0.00 0.00 0.00 63 1010.0
20260508040353 25 255 6.4 14.5 0.00 0.00 0.00 65 1011.0
20260508035853 25 254 6.4 11.3 0.00 0.00 0.00 66 1011.0
20260508035353 25 273 8.0 14.5 0.00 0.00 0.00 66 1010.0
20260508034854 25 243 12.9 16.1 0.00 0.00 0.00 66 1011.0
20260508034357 26 281 8.0 14.5 0.00 0.00 0.00 64 1011.0
20260508033853 26 228 11.3 12.9 0.00 0.00 0.00 64 1011.0
20260508033354 25 236 9.7 14.5 0.00 0.00 0.00 65 1011.0
20260508032854 26 249 8.0 24.1 0.00 0.00 0.00 64 1011.0
20260508032354 25 262 6.4 16.1 0.00 0.00 0.00 67 1011.0
20260508031853 25 242 8.0 14.5 0.00 0.00 0.00 65 1011.0
20260508031354 26 246 8.0 17.7 0.00 0.00 0.00 62 1011.0
20260508030853 26 243 11.3 14.5 0.00 0.00 0.00 59 1011.0
20260508030353 27 251 9.7 19.3 0.00 0.00 0.00 57 1012.0
20260508025854 27 239 9.7 17.7 0.00 0.00 0.00 56 1012.0
20260508025353 27 226 8.0 12.9 0.00 0.00 0.00 56 1012.0
20260508024855 27 266 8.0 14.5 0.00 0.00 0.00 54 1012.0
20260508024353 26 315 0.0 11.3 0.00 0.00 0.00 47 1012.0
20260508023853 27 305 9.7 16.1 0.00 0.00 0.00 50 1012.0
20260508023353 27 299 8.0 11.3 0.00 0.00 0.00 50 1012.0
20260508022853 27 145 1.6 8.0 0.00 0.00 0.00 40 1012.0
20260508022355 27 236 0.0 8.0 0.00 0.00 0.00 42 1012.0
20260508021854 27 246 4.8 6.4 0.00 0.00 0.00 42 1012.0
20260508021354 26 219 6.4 11.3 0.00 0.00 0.00 43 1012.0
20260508020854 28 306 11.3 14.5 0.00 0.00 0.00 41 1012.0
20260508020354 27 269 3.2 6.4 0.00 0.00 0.00 41 1013.0
20260508015853 26 266 3.2 6.4 0.00 0.00 0.00 39 1013.0
20260508015353 26 22 3.2 4.8 0.00 0.00 0.00 49 1012.0
20260508014853 26 234 8.0 9.7 0.00 0.00 0.00 52 1013.0
20260508014354 26 288 6.4 11.3 0.00 0.00 0.00 51 1013.0
20260508013853 25 221 8.0 9.7 0.00 0.00 0.00 55 1012.0
20260508013353 25 317 1.6 9.7 0.00 0.00 0.00 60 1013.0
20260508012853 26 249 3.2 8.0 0.00 0.00 0.00 57 1013.0
20260508012353 26 237 6.4 8.0 0.00 0.00 0.00 59 1013.0
20260508011853 25 200 4.8 6.4 0.00 0.00 0.00 60 1012.0
20260508011353 25 215 4.8 8.0 0.00 0.00 0.00 62 1013.0
20260508010854 25 275 4.8 6.4 0.00 0.00 0.00 64 1013.0
20260508010353 25 247 0.0 9.7 0.00 0.00 0.00 64 1013.0
20260508005854 23 239 4.8 6.4 0.00 0.00 0.00 67 1013.0
20260508005353 23 278 8.0 8.0 0.00 0.00 0.00 69 1013.0
20260508004853 23 228 3.2 8.0 0.00 0.00 0.00 70 1013.0
20260508004353 22 13 1.6 4.8 0.00 0.00 0.00 69 1013.0
20260508003854 23 204 1.6 6.4 0.00 0.00 0.00 69 1013.0
20260508003353 23 200 4.8 8.0 0.00 0.00 0.00 69 1013.0
20260508002854 23 275 3.2 4.8 0.00 0.00 0.00 69 1013.0
20260508002353 23 133 1.6 4.8 0.00 0.00 0.00 68 1013.0
20260508001853 23 215 3.2 9.7 0.00 0.00 0.00 67 1013.0
20260508001353 23 85 3.2 6.4 0.00 0.00 0.00 69 1013.0
20260508000853 23 212 3.2 4.8 0.00 0.00 0.00 69 1013.0
20260508000357 23 50 1.6 4.8 0.00 0.00 0.00 68 1013.0
20260507235854 22 214 0.0 6.4 0.00 0.00 0.00 70 1013.0
20260507235353 22 349 3.2 6.4 0.00 0.00 0.00 73 1012.0
20260507234853 22 309 0.0 4.8 0.00 0.00 0.00 70 1012.0
20260507234354 22 97 3.2 4.8 0.00 0.00 0.00 72 1012.0
20260507233853 22 236 3.2 4.8 0.00 0.00 0.00 74 1012.0
20260507233353 22 0 3.2 6.4 0.00 0.00 0.00 74 1012.0
20260507232854 22 242 0.0 4.8 0.00 0.00 0.00 73 1012.0
20260507232353 22 329 4.8 6.4 0.00 0.00 0.00 75 1012.0
20260507231853 22 1 1.6 4.8 0.00 0.00 0.00 74 1012.0
20260507231353 22 289 4.8 4.8 0.00 0.00 0.00 75 1012.0
20260507230854 21 113 0.0 3.2 0.00 0.00 0.00 77 1012.0
20260507230353 21 121 0.0 4.8 0.00 0.00 0.00 77 1012.0
20260507225853 21 341 0.0 4.8 0.00 0.00 0.00 77 1012.0
20260507225354 20 191 3.2 3.2 0.00 0.00 0.00 79 1012.0
20260507224855 20 242 0.0 3.2 0.00 0.00 0.00 80 1012.0
20260507224353 20 205 1.6 3.2 0.00 0.00 0.00 81 1012.0
20260507223853 20 213 0.0 3.2 0.00 0.00 0.00 81 1012.0
20260507223353 19 241 0.0 3.2 0.00 0.00 0.00 84 1012.0
20260507222854 18 162 1.6 3.2 0.00 0.00 0.00 87 1012.0
20260507222354 17 210 0.0 3.2 0.00 0.00 0.00 91 1012.0
20260507221853 17 235 1.6 3.2 0.00 0.00 0.00 91 1011.0
20260507221353 17 224 1.6 3.2 0.00 0.00 0.00 91 1011.0
20260507220853 17 212 1.6 3.2 0.00 0.00 0.00 91 1011.0
20260507220353 17 192 1.6 4.8 0.00 0.00 0.00 91 1011.0
20260507215854 17 232 0.0 3.2 0.00 0.00 0.00 90 1011.0
20260507215354 17 207 0.0 3.2 0.00 0.00 0.00 90 1011.0
20260507214853 17 187 1.6 3.2 0.00 0.00 0.00 93 1011.0
20260507214353 17 165 0.0 3.2 0.00 0.00 0.00 92 1011.0
20260507213854 17 186 1.6 3.2 0.00 0.00 0.00 91 1011.0
20260507213353 17 221 0.0 3.2 0.00 0.00 0.00 90 1011.0
20260507212854 17 187 3.2 4.8 0.00 0.00 0.00 91 1011.0
20260507212353 17 200 3.2 4.8 0.00 0.00 0.00 91 1010.0
20260507211853 17 173 0.0 3.2 0.00 0.00 0.00 90 1010.0
20260507211353 17 210 1.6 4.8 0.00 0.00 0.00 89 1010.0
20260507210853 17 230 3.2 4.8 0.00 0.00 0.00 88 1011.0
20260507210353 17 226 1.6 3.2 0.00 0.00 0.00 89 1010.0
20260507205853 17 205 3.2 6.4 0.00 0.00 0.00 88 1010.0
20260507205354 17 201 4.8 8.0 0.00 0.00 0.00 89 1010.0
20260507204854 17 247 1.6 4.8 0.00 0.00 0.00 90 1010.0
20260507204353 17 205 1.6 4.8 0.00 0.00 0.00 88 1010.0
20260507203854 17 174 1.6 6.4 0.00 0.00 0.00 89 1010.0
20260507203355 17 285 0.0 4.8 0.00 0.00 0.00 90 1010.0
20260507202854 17 208 3.2 4.8 0.00 0.00 0.00 90 1010.0
20260507202353 17 235 3.2 4.8 0.00 0.00 0.00 91 1010.0
20260507201854 17 231 1.6 3.2 0.00 0.00 0.00 90 1010.0
20260507201353 18 229 3.2 3.2 0.00 0.00 0.00 89 1010.0
20260507200853 18 204 0.0 3.2 0.00 0.00 0.00 88 1010.0
20260507200353 18 203 3.2 4.8 0.00 0.00 0.00 87 1009.0
20260507195854 18 244 1.6 4.8 0.00 0.00 0.00 86 1009.0
20260507195353 19 230 1.6 3.2 0.00 0.00 0.00 84 1009.0
20260507194853 18 202 0.0 4.8 0.00 0.00 0.00 87 1009.0
20260507194353 17 92 0.0 3.2 0.00 0.00 0.00 93 1009.0
20260507193853 17 158 3.2 4.8 0.00 0.00 0.00 93 1009.0
20260507193353 17 219 1.6 3.2 0.00 0.00 0.00 93 1009.0
20260507192853 17 190 0.0 4.8 0.00 0.00 0.00 92 1009.0
20260507192353 18 223 1.6 3.2 0.00 0.00 0.00 92 1009.0
20260507191854 18 189 3.2 4.8 0.00 0.00 0.00 91 1009.0
20260507191353 18 272 1.6 3.2 0.00 0.00 0.00 91 1009.0
20260507190853 18 244 3.2 4.8 0.00 0.00 0.00 91 1009.0
20260507190356 18 231 4.8 4.8 0.00 0.00 0.00 92 1009.0
20260507185854 18 233 1.6 4.8 0.00 0.00 0.00 92 1009.0
20260507185354 18 237 1.6 3.2 0.00 0.00 0.00 93 1009.0
20260507184853 18 200 3.2 4.8 0.00 0.00 0.00 92 1009.0
20260507184354 18 209 0.0 3.2 0.00 0.00 0.00 90 1009.0
20260507183854 18 239 3.2 4.8 0.00 0.00 0.00 88 1009.0
20260507183354 19 161 0.0 3.2 0.00 0.00 0.00 89 1009.0
20260507182854 19 227 4.8 6.4 0.00 0.00 0.00 88 1009.0
20260507182353 19 230 3.2 6.4 0.00 0.00 0.00 88 1009.0
20260507181854 19 192 3.2 4.8 0.00 0.00 0.00 88 1009.0
20260507181356 19 292 1.6 4.8 0.00 0.00 0.00 89 1009.0
20260507180854 19 224 3.2 8.0 0.00 0.00 0.00 89 1009.0
20260507180359 19 19 1.6 4.8 0.00 0.00 0.00 90 1009.0
20260507175853 18 102 3.2 6.4 0.00 0.00 0.00 91 1008.0
20260507175356 18 232 1.6 6.4 0.00 0.00 0.00 91 1009.0
20260507174854 18 230 3.2 6.4 0.00 0.00 0.00 91 1009.0
20260507174354 18 237 8.0 8.0 0.00 0.00 0.00 91 1009.0
20260507173853 19 244 0.0 8.0 0.00 0.00 0.00 90 1009.0
20260507173353 19 211 3.2 6.4 0.00 0.00 0.00 90 1009.0
20260507172853 19 85 3.2 6.4 0.00 0.00 0.00 89 1009.0
20260507172354 19 71 1.6 6.4 0.00 0.00 0.00 89 1009.0
20260507171854 19 109 1.6 8.0 0.00 0.00 0.00 89 1009.0
20260507171354 19 92 3.2 6.4 0.00 0.00 0.00 89 1009.0
20260507170853 19 303 3.2 6.4 0.00 0.00 0.00 90 1009.0
20260507170354 18 249 4.8 4.8 0.00 0.00 0.00 91 1009.0
20260507165853 18 241 4.8 6.4 0.00 0.00 0.00 91 1009.0
20260507165353 18 197 1.6 6.4 0.00 0.00 0.00 91 1009.0
20260507164854 18 243 3.2 4.8 0.00 0.00 0.00 91 1009.0
20260507164354 18 11 3.2 4.8 0.00 0.00 0.00 90 1009.0
20260507163854 18 283 1.6 6.4 0.00 0.00 0.00 91 1009.0
20260507163354 18 218 3.2 4.8 0.00 0.00 0.00 91 1009.0
20260507162853 18 239 4.8 4.8 0.00 0.00 0.00 90 1009.0
20260507162353 18 221 4.8 8.0 0.00 0.00 0.00 90 1009.0
20260507161854 19 236 3.2 8.0 0.00 0.00 0.00 90 1009.0
20260507161353 18 241 3.2 4.8 0.00 0.00 0.00 92 1009.0
20260507160853 18 225 3.2 3.2 0.00 0.00 0.00 91 1009.0
20260507160354 18 235 3.2 4.8 0.00 0.00 0.00 91 1009.0
20260507155854 18 236 3.2 4.8 0.00 0.00 0.00 91 1009.0
20260507155354 18 208 3.2 4.8 0.00 0.00 0.00 90 1009.0
20260507154853 19 213 3.2 4.8 0.00 0.00 0.00 90 1009.0
20260507154353 19 228 3.2 4.8 0.00 0.00 0.00 90 1009.0
20260507153853 19 249 3.2 4.8 0.00 0.00 0.00 89 1009.0
20260507153353 19 218 4.8 6.4 0.00 0.00 0.00 89 1009.0
20260507152856 19 241 4.8 6.4 0.00 0.00 0.00 89 1009.0
20260507152354 19 227 4.8 6.4 0.00 0.00 0.00 89 1009.0
20260507151854 19 232 3.2 4.8 0.00 0.00 0.00 88 1009.0
20260507151353 20 221 4.8 6.4 0.00 0.00 0.00 88 1009.0
20260507150858 20 241 4.8 4.8 0.00 0.00 0.00 88 1009.0
20260507150354 20 224 4.8 6.4 0.00 0.00 0.00 87 1009.0
20260507145854 20 240 3.2 4.8 0.00 0.00 0.00 87 1009.0
20260507145353 20 269 4.8 4.8 0.00 0.00 0.00 88 1009.0
20260507144853 20 235 3.2 4.8 0.00 0.00 0.00 88 1009.0
20260507144353 20 259 4.8 8.0 0.00 0.00 0.00 87 1009.0
20260507143853 20 227 3.2 4.8 0.00 0.00 0.00 87 1010.0
20260507143355 20 258 4.8 6.4 0.00 0.00 0.00 87 1009.0
20260507142854 20 192 3.2 6.4 0.00 0.00 0.00 87 1009.0
20260507142355 20 224 4.8 6.4 0.00 0.00 0.00 87 1009.0
20260507141854 20 232 6.4 6.4 0.00 0.00 0.00 87 1009.0
20260507141355 20 234 4.8 4.8 0.00 0.00 0.00 87 1009.0
20260507140854 20 215 4.8 4.8 0.00 0.00 0.00 87 1010.0
20260507140353 20 233 3.2 4.8 0.00 0.00 0.00 88 1009.0
20260507135854 20 227 4.8 6.4 0.00 0.00 0.00 88 1009.0
20260507135354 20 223 4.8 6.4 0.00 0.00 0.00 88 1009.0
20260507134853 20 234 3.2 4.8 0.00 0.00 0.00 88 1009.0
20260507134354 20 223 4.8 4.8 0.00 0.00 0.00 88 1009.0
20260507133853 20 235 4.8 4.8 0.00 0.00 0.00 87 1009.0
20260507133353 20 245 4.8 4.8 0.00 0.00 0.00 86 1009.0
20260507132854 20 247 4.8 8.0 0.00 0.00 0.00 86 1009.0
20260507132354 20 244 4.8 8.0 0.00 0.00 0.00 86 1009.0
20260507131853 20 236 4.8 6.4 0.00 0.00 0.00 87 1009.0
20260507131353 20 238 4.8 4.8 0.00 0.00 0.00 85 1009.0
20260507130857 20 219 4.8 6.4 0.00 0.00 0.00 85 1009.0
20260507130353 20 224 4.8 6.4 0.00 0.00 0.00 85 1008.0
20260507125854 20 237 6.4 6.4 0.00 0.00 0.00 85 1008.0
20260507125354 20 231 6.4 6.4 0.00 0.00 0.00 86 1008.0
20260507124854 20 241 8.0 8.0 0.00 0.00 0.00 85 1008.0
20260507124356 20 212 3.2 6.4 0.00 0.00 0.00 85 1008.0
20260507123853 20 234 6.4 6.4 0.00 0.00 0.00 85 1008.0
20260507123354 21 260 6.4 8.0 0.00 0.00 0.00 85 1008.0
20260507122853 21 232 4.8 4.8 0.00 0.00 0.00 84 1008.0
20260507122353 21 237 4.8 6.4 0.00 0.00 0.00 84 1008.0
20260507121854 21 227 6.4 6.4 0.00 0.00 0.00 84 1008.0
20260507121354 21 238 4.8 6.4 0.00 0.00 0.00 84 1008.0
20260507120859 21 256 4.8 8.0 0.00 0.00 0.00 84 1008.0
20260507120354 21 232 4.8 4.8 0.00 0.00 0.00 83 1008.0
20260507115853 21 241 3.2 4.8 0.00 0.00 0.00 83 1008.0
20260507115353 21 252 4.8 6.4 0.00 0.00 0.00 83 1008.0
20260507114853 21 244 4.8 4.8 0.00 0.00 0.00 81 1008.0
20260507114353 21 249 3.2 4.8 0.00 0.00 0.00 84 1008.0
20260507113854 21 275 4.8 8.0 0.00 0.00 0.00 84 1008.0
20260507113354 21 229 4.8 8.0 0.00 0.00 0.00 85 1008.0
20260507112854 21 224 3.2 4.8 0.00 0.00 0.00 85 1008.0
20260507112353 21 239 4.8 4.8 0.00 0.00 0.00 86 1007.0
20260507111853 21 239 4.8 4.8 0.00 0.00 0.00 86 1007.0
20260507111353 21 236 6.4 8.0 0.00 0.00 0.00 86 1007.0
20260507110854 21 245 4.8 6.4 0.00 0.00 0.00 86 1007.0
20260507110355 21 273 3.2 4.8 0.00 0.00 0.00 86 1007.0